Regional Weather Roundup
Issued by NWS

Home | Current Version | Previous Version | Graphics & Text | Print | Product List | Glossary Off
Versions: 1 2 3 4 5 6 7 8 9 10 11 12 13 14 15 16 17 18 19 20 21 22 23 24 25 26 27 28 29 30 31 32 33 34 35 36 37 38 39 40 41 42 43 44 45 46 47 48 49 50

000
ASUS43 KDMX 260301
RWRIA

WEATHER ROUNDUP FOR IOWA
NATIONAL WEATHER SERVICE DES MOINES IA
1000 PM CDT SUN JUN 25 2017

NOTE: "FAIR" INDICATES FEW OR NO CLOUDS BELOW 12,000 FEET WITH NO
SIGNIFICANT WEATHER AND/OR OBSTRUCTIONS TO VISIBILITY.

* - THESE STATIONS ARE NOT NWS STATIONS...THUS NOT UNDER NWS
QUALITY CONTROL.  THEY ALSO DO NOT REPORT WEATHER SUCH
AS PRECIPITATION OR FOG.

IAZ001>003-012>014-020>022-031>034-043>046-260400-
   NORTHWEST IOWA

CITY           SKY/WX    TMP DP  RH WIND       PRES   REMARKS
CARROLL *      CLEAR     57  46  67 W5        30.20R
CHEROKEE *     PTCLDY    57  46  68 CALM      30.19S
DENISON *      CLEAR     59  46  63 SE5       30.21S
LE MARS *      PTCLDY    57  48  72 CALM      30.19R
ORANGE CITY *  PTCLDY    66  45  45 CALM      30.19S
SHELDON *      PTCLDY    59  45  58 NE10      30.19R
SIOUX CITY     CLEAR     61  44  53 CALM      30.17F
SPENCER        CLOUDY    60  46  59 N9        30.20R
STORM LAKE *   CLEAR     63  41  45 CALM      30.19S
$$

IAZ055>058-069>071-079>083-090>094-260400-
   SOUTHWEST IOWA

CITY           SKY/WX    TMP DP  RH WIND       PRES   REMARKS
ATLANTIC *     CLEAR     59  50  72 CALM      30.21S
AUDUBON *      CLEAR     55  48  76 CALM      30.22S
CLARINDA *       N/A     59  54  82 CALM      30.24S
COUNCIL BLFS * CLEAR     64  45  48 SE3       30.21F
CRESTON *      CLEAR     63  45  51 W6        30.23S
HARLAN  *      CLEAR     57  46  67 CALM      30.24S
LAMONI         CLEAR     61  47  59 W6        30.22R
RED OAK *      PTCLDY    59  52  77 CALM      30.22S
SHENANDOAH *   CLEAR     59  54  82 CALM      30.22S
$$

IAZ047>049-059>061-072>074-084-260400-
   CENTRAL IOWA

CITY           SKY/WX    TMP DP  RH WIND       PRES   REMARKS
AMES           CLEAR     60  45  57 N3        30.19S
ANKENY *       CLEAR     59  48  67 CALM      30.20S
BOONE *        CLEAR     61  43  51 N5        30.19R
CHARITON *     CLEAR     63  45  51 W6        30.20R
DES MOINES     PTCLDY    67  42  40 NW3       30.19S
GRINNELL*      CLEAR     58  46  62 NW5       30.20R
KNOXVILLE *    CLEAR     61  46  59 W6        30.18S
MARSHALLTOWN   PTCLDY    58  44  60 NW6       30.18R
NEWTON *       CLEAR     63  43  48 N8        30.20R
PELLA *        CLEAR     60  46  60 CALM      30.20R
PERRY *          N/A     60  46  59 CALM      30.20R
$$

IAZ004>006-015-016-023>025-035-036-260400-
   NORTH CENTRAL IOWA

CITY           SKY/WX    TMP DP  RH WIND       PRES   REMARKS
ALGONA *       MOCLDY    57  46  67 W5        30.20R
CLARION *        N/A     61  45  55 NW3       30.19R
ESTHERVILLE    LGT RAIN  56  49  77 NW12G28   30.19S
FORT DODGE *   PTCLDY    55  43  62 CALM      30.20S
MASON CITY     MOCLDY    58  41  53 NW7       30.19S
FOREST CITY *  MOCLDY    59  32  36 CALM      30.18S
WEBSTER CITY * PTCLDY    57  45  62 N3        30.17S
IOWA FALLS *   CLOUDY    58  47  66 NW6       30.20S
$$

IAZ007>011-017>019-026>030-037>042-050>054-066-260400-
   NORTHEAST IOWA

CITY           SKY/WX    TMP DP  RH WIND       PRES   REMARKS
CEDAR RAPIDS   CLEAR     58  47  66 NW3       30.16R
CHARLES CITY * PTCLDY    55  45  67 W5        30.17R
CLINTON *      CLEAR     57  52  83 W5        30.15S
DECORAH *      CLEAR     57  45  62 W5        30.13S
DUBUQUE        CLEAR     54  47  77 W6        30.15R
MONTICELLO *   MOCLDY    57  50  77 CALM      30.15R
OELWEIN *      CLEAR     55  48  76 W7        30.16S
WATERLOO       CLEAR     58  43  57 W7        30.16R
$$

IAZ064-065-067-068-078-260400-
   EAST CENTRAL IOWA

CITY           SKY/WX    TMP DP  RH WIND       PRES   REMARKS
DAVENPORT      CLEAR     58  51  78 W5        30.16R
IOWA CITY      CLEAR     59  46  62 NW5       30.18R
MT. PLEASANT * CLEAR     59  45  58 W5        30.18R
MUSCATINE *    CLEAR     59  48  67 CALM      30.16S
QUAD CITIES    CLEAR     57  50  77 SW3       30.15R
$$

IAZ062-063-075>077-085>089-095>099-260400-
   SOUTHEAST IOWA

CITY           SKY/WX    TMP DP  RH WIND       PRES   REMARKS
BURLINGTON     CLEAR     62  46  55 W3        30.17R
FAIRFIELD *    CLEAR     61  45  55 W6        30.18R
FORT MADISON * CLEAR     64  46  52 CALM      30.19R
KEOKUK *       CLEAR     59  48  67 W3        30.17S
OSKALOOSA *      N/A     57  47  67 W7        30.19R
OTTUMWA        CLEAR     58  46  64 W5        30.18S
WASHINGTON *   CLEAR     61  46  59 W6        30.18R
$$

ABBREVIATIONS USED IN REMARKS
   TC - TEMPERATURES IN CELSIUS
  WCI - WIND CHILL INDEX
   HX - HEAT INDEX
  VSB - VISIBILITY
$$




USA.gov is the U.S. government's official web portal to all federal, state and local government web resources and services.